Location: Sungai Bunut
(2.6333°N, 113.7333°E)
Time: 19:40:04
(UTC+00:00)

Cosmos 1300 Rocket - Pass Details

Date: 16 October 2021
Orbit: 603 x 625 km, 82.5° (Epoch: 07 December)

Event Time Altitude Azimuth Distance (km) Brightness Sun altitude
Rises 20:52:25 0° 359° (N) 2,862 6.9 -19.7°
Reaches altitude 10° 20:54:38 10° 1° (N) 1,964 6.0 -19.1°
Maximum altitude 20:58:58 74° 86° (E) 642 3.7 -18.1°
Drops below altitude 10° 21:03:21 10° 171° (S) 1,984 6.4 -17.0°
Sets 21:05:36 0° 173° (S) 2,895 7.2 -16.4°
